FENGYUN 1C DEB, 36283

Orbit data source: Space-Track

FENGYUN 1C DEB, 36283 is space debris in SSO originally from a launch on Mon, 10 May 1999 UTC launched from the Taiyaun Space Center, China (TSC). Fengyun 1C debris stems from the Chinese weather satellite Fengyun-1C, which was intentionally destroyed by a Chinese anti-satellite missile in 2007. This event dramatically increased the amount of space debris, with thousands of trackable fragments posing hazards to satellites and human spaceflight. The Fengyun 1C debris cloud has become a focal point in discussions about space sustainability and the need for international regulations to prevent the creation of new debris.

Loading next visibility...
Identifier
36283, 1999-025DXL
Orbit
SSO
Country
Flag of CNCN / PRC
Related business
Manufacturer
Unknown
Mission
Spacecraft
Bus & Motor
Unknown
Mass
Unknown
Launch date (UTC)
1999-05-10 (27 years ago)
Launch vehicle
Unknown
Launch site
Taiyaun Space Center, China (TSC)
Object type
Payload
Rocket body
Debris
Shape & HBR
Unknown shape, 0.1 m
Radar Cross Section
Small (<0.1 m²)

Expand to show TLE details & history
Last TLE update: 19 hours ago

TLE from 19 hours ago
0 FENGYUN 1C DEB
1 36283U 99025DXL 26236.34744526  .00024192  00000-0  10511-2 0  9999
2 36283  99.4240 266.7762 0045941 296.2610  63.3902 15.21347999705192
Epoch: 2026-08-24T08:20Z
TLE epoch observation values (Epoch: 2026-08-24T08:20:19.270Z)
Latitude
-0.00002°
Longitude
169.06546°
Altitude
490.757 km
Speed
7.627 km/s
True Right ascension
17h 47m 06s
True Declination
0° 00' 00"
Sunlit
Object was in full shadow at epoch
Visualization orbit readout
Latitude
Unknown
Longitude
Unknown
Altitude
Unknown
Speed
Unknown
Apparent Right ascension
Unknown
Apparent Declination
Unknown
Sunlit
N/A
Visualization observer readout
Local Sidereal Time
18:20:10
Azimuth
Unknown
Elevation
Unknown
Doppler factor
Unknown
Orbital elements
Apogee altitude
530.429 km
Perigee altitude
467.242 km
Semi-major axis
6,876.972 km
Eccentricity
0.00459
Inclination
99.424°
RAAN
266.7762°
Arg. of periapsis
296.261°
True anomaly
63.86209°
Mean anomaly
63.3902°
Eccentric anomaly
63.62602°
Mean motion
3.80581 °/min
Orbital period
94.59 mins
BSTAR
0.0010511
Loading maneuver chart data...
Computing Atmospheric mass density...

Documentation

Showing up to 5 results
|